sat.trackr.live / text

‹ back to catalog

STARLINK-4403

NORAD 53197 · 2022-084J

PAYLOAD ACTIVE UNKNOWN

§ Identity

Operator
Country
US
Launch date
2022-07-22
Launch site
AFWTR
Launch vehicle
Mass (kg)
RCS (m²)

Purposes: comms

External: N2YO · Heavens-Above · Gunter

§ Orbital elements

Epoch: 2026-09-19T21:29:58.206912Z

Period
93.91 min
Inclination
97.2831°
Eccentricity
0.0001067
Mean motion
15.33444590 rev/d
Perigee alt
464.8 km
Apogee alt
466.3 km
Semi-major
6,843.7 km
B*
-5.7194e-5
RAAN
317.6839°
Arg perigee
109.3057°
Mean anomaly
250.8302°
Rev number
22,859

§ Raw data

STARLINK-44031 53197U 22084J   26262.89581258 -.00001921  00000+0 -57194-4 0  99992 53197  97.2831 317.6839 0001067 109.3057 250.8302 15.33444590228597

JSON: /api/v1/satellites/53197 · /tle

For live sub-satellite position, see the globe view (requires WebGL).

§ Visibility from observer

Set your observer location to see the next 7 days of passes ≥ 10°. The values pass through the URL so the page stays shareable.

No JS? Fill the form by hand. The geolocation button needs JavaScript.